#timestamp,LO_Frequency,Hit,StdDev 
1664521215.6,286047002.6,N
1664521235.5,286047002.4,N
1664521255.3,286047000.1,N
1664521275.2,286047002.2,N
1664521295.9,286047002.3,N
1664521315.7,286047000.9,N
1664521335.6,286047000.8,N
1664521355.4,286047001.0,N
1664521375.2,286046999.9,N
1664521395.1,286047001.1,N
1664521396.0,286047001.1,N
1664521415.8,286047000.7,N
1664521435.7,286047000.9,N
1664521455.5,286047000.9,N
1664521475.3,286047000.4,N
1664521495.2,286047000.8,N
1664521515.0,286046998.5,N
1664521515.9,286046998.5,N
1664521535.8,286047000.9,N
1664521555.6,286047000.8,N
1664521575.4,286046996.7,Y
1664521595.3,286046997.9,P
1664521615.1,286046997.1,N
1664521635.8,286046996.6,N
1664521655.7,286046999.0,N
1664521675.5,286046996.6,N
1664521695.4,286046996.8,N
1664521715.2,286046997.8,N
1664521735.0,286046996.6,N
1664521735.9,286046996.6,N
1664521755.8,286046998.3,N
1664521775.6,286046999.3,N
1664521795.5,286046999.5,N
1664521815.3,286046997.6,N
1664521835.1,286046997.4,N
1664521855.9,286046999.6,N
1664521875.3,286046998.5,N
1664521895.1,286046999.1,N
1664521915.8,286046998.7,N
1664521935.7,286046998.5,N
1664521955.5,286046997.2,N
1664521975.4,286046999.5,N
1664521995.2,286047000.8,N
1664522015.0,286046998.9,N
1664522015.9,286046998.9,N
1664522035.8,286046999.4,N
1664522055.6,286046998.3,N
1664522075.4,286047000.7,N
1664522095.3,286047001.0,N
1664522115.1,286047000.2,N
1664522135.9,286047002.3,N
1664522155.7,286046999.7,N
1664522175.5,286047002.5,N
1664522195.4,286047002.8,N
1664522215.2,286047002.4,N
1664522235.1,286047001.4,N
1664522236.0,286047001.4,N
1664522255.8,286047000.1,N
1664522275.6,286046999.7,N
1664522295.5,286047001.9,N
1664522315.3,286047000.5,N
1664522335.2,286047000.6,N
1664522355.9,286046998.6,N
1664522375.7,286047000.8,N
1664522395.6,286046999.1,N
1664522415.4,286046999.5,N
1664522435.2,286046999.3,N
1664522455.1,286046999.1,N
1664522456.0,286046999.1,N
1664522475.8,286046996.7,N
1664522495.7,286046997.7,N
1664522515.5,286046999.2,N
1664522535.3,286046996.8,N
1664522555.2,286046997.8,N
1664522575.0,286046999.5,N
1664522575.9,286046999.5,N
1664522595.8,286046998.6,N
1664522615.6,286047000.8,N
1664522635.4,286047002.7,N
1664522655.3,286047000.5,N
1664522675.1,286047001.1,N
1664522695.8,286047002.2,N
1664522715.7,286047002.3,N
1664522735.5,286047001.6,N
1664522755.4,286047001.3,N
1664522775.2,286047004.0,N
1664522795.0,286047004.0,N
1664522795.9,286047004.0,N
1664522815.8,286046999.7,N
1664522835.6,286047000.1,N
1664522855.4,286047002.6,N
1664522875.3,286047001.5,N
1664522895.1,286047006.0,Y
1664522915.9,286047003.9,P
1664522935.7,286047002.6,N
1664522955.5,286047000.3,N
1664522975.4,286046999.1,N
1664522995.2,286046999.2,N
1664523015.0,286046998.5,N
1664523015.9,286046998.5,N
1664523035.8,286047000.4,N
1664523055.6,286047000.1,N
1664523075.5,286047000.0,N
1664523095.3,286046998.2,N
1664523115.1,286046998.3,N
1664523135.9,286047002.1,N
1664523155.7,286047002.7,N
1664523175.5,286047001.0,N
1664523195.4,286047002.8,N
1664523215.2,286047001.6,N
1664523235.1,286047001.4,N
1664523236.0,286047001.4,N
1664523255.8,286047001.3,N
1664523275.6,286047002.1,N
1664523295.5,286046999.4,N
1664523315.3,286046999.4,N
1664523335.1,286046999.0,N
1664523355.9,286047000.9,N
1664523375.7,286047001.0,N
1664523395.6,286047000.9,N
1664523415.4,286046999.9,N
1664523435.2,286046999.0,N
1664523455.1,286046996.5,N
1664523456.0,286046996.5,N
1664523475.8,286047001.2,N
1664523495.7,286047000.2,N
1664523515.5,286047002.3,N
1664523535.3,286047000.1,N
1664523555.2,286046998.8,N
1664523575.0,286046998.4,N
1664523575.9,286046998.4,N
1664523595.7,286046998.2,N
1664523615.6,286046999.9,N
1664523635.4,286047000.4,N
1664523655.3,286047000.9,N
1664523675.1,286047001.2,N
1664523676.0,286047001.2,N
1664523695.8,286047000.7,N
1664523715.7,286046997.3,N
1664523735.5,286046999.4,N
1664523755.3,286046998.2,N
1664523775.2,286047000.7,N
1664523795.0,286046998.1,N
1664523795.9,286046998.1,N
1664523815.8,286047001.5,N
1664523835.6,286047001.3,N
1664523855.4,286047004.1,N
1664523875.3,286047003.7,N
1664523895.1,286047003.4,N
1664523915.9,286047003.8,N
1664523935.7,286047004.1,N
1664523955.5,286047005.5,N
1664523975.4,286047003.1,N
1664523995.2,286047002.3,N
1664524015.1,286046998.3,N
1664524016.0,286046998.3,N
1664524035.8,286046998.2,N
1664524055.6,286047000.1,N
1664524075.5,286046999.9,N
1664524095.3,286047001.5,N
1664524115.1,286047004.2,N
1664524135.9,286047002.1,N
1664524155.7,286047002.5,N
1664524175.6,286047002.2,N
1664524195.4,286047002.2,N
1664524215.2,286047003.8,N
1664524235.1,286047003.5,N
1664524236.0,286047003.5,N
1664524255.8,286047002.0,N
1664524275.6,286046999.8,N
1664524295.5,286047000.1,N
1664524315.3,286047000.7,N
1664524335.2,286047002.5,N
1664524355.9,286047001.6,N
1664524375.7,286047003.2,N
1664524395.6,286047002.8,N
1664524415.4,286047000.2,N
1664524435.3,286046999.9,N
1664524455.1,286047000.7,N
1664524475.8,286047000.0,N
1664524495.7,286047000.3,N
1664524515.5,286047002.7,N
1664524535.4,286047000.0,N
1664524555.2,286047002.0,N
1664524575.0,286047002.8,N
1664524575.9,286047002.8,N
1664524595.8,286046998.4,N
1664524615.6,286046998.6,N
1664524635.4,286047000.7,N
1664524655.3,286047000.6,N
1664524675.1,286047000.1,N
1664524695.9,286047001.9,N
1664524715.7,286047002.3,N
1664524735.5,286047002.6,N
1664524755.4,286046999.9,N
1664524775.2,286047000.9,N
1664524825.1,286047000.4,E
